Location: Azul
(36.7830°S, 59.8500°W)
Time: 23:45:37
(UTC-03:00)

NOAA 15 - Pass Details

Date: 30 October 2021
Orbit: 797 x 813 km, 98.7° (Epoch: 30 November)

Event Time Altitude Azimuth Distance (km) Brightness Sun altitude
Rises 20:30:59 0° 164° (SSE) 3,344 8.0 -11.9°
Reaches altitude 10° 20:33:21 10° 161° (SSE) 2,408 7.2 -12.3°
Maximum altitude 20:38:39 67° 78° (ENE) 878 4.6 -13.3°
Drops below altitude 10° 20:43:55 10° 355° (N) 2,387 6.8 -14.2°
Sets 20:46:15 0° 352° (N) 3,313 7.6 -14.6°
